Change the Weather History Date:

Sunday, September 15, 2013

  Actual Average Record
Temperature  
Mean Temperature 81 °F -  
Max Temperature 98 °F 85 °F 98 °F (2013)
Min Temperature 64 °F 58 °F 48 °F (2010)
Cooling Degree Days 16    
Growing Degree Days 31 (Base 50)    
Moisture  
Dew Point 46 °F    
Average Humidity 29    
Maximum Humidity 49    
Minimum Humidity 11    
Precipitation  
Precipitation 0.00 in - - ()
Sea Level Pressure  
Sea Level Pressure 30.01 in    
Wind  
Wind Speed 2 mph ()    
Max Wind Speed 6 mph    
Max Gust Speed -    
Visibility 6.1 miles    
Events      
Averages and records for this station are not official NWS values.
T = Trace of Precipitation, MM = Missing Value Source: Averaged Metar Reports

Daily Weather History Graph

Daily Weather History Graph

Search for Another Location

Airport or City:

Trip Planner

Search our weather history database for the weather conditions in past years. The results will help you decide how hot, cold, wet, or windy it might be!

Date:

Astronomy

Sep. 15, 2013 Rise Set
Actual Time 6:06 AM CAT 6:04 PM CAT
Civil Twilight 5:44 AM CAT 6:26 PM CAT
Nautical Twilight 5:18 AM CAT 6:52 PM CAT
Astronomical Twilight 4:52 AM CAT 7:18 PM CAT
Moon 2:12 PM CAT (9/15) 2:35 AM CAT (9/15)
Length of Visible Light 12h 42m
Length of Day
11h 58m
Waxing Gibbous, 79% of the Moon is Illuminated
Sep 15
Waxing Gibbous
Sep 19
Full
Sep 27
Last Quarter
Oct 5
New
Oct 12
First Quarter

Hourly Weather History & Observations

Time (CAT) Temp. Dew Point Humidity Pressure Visibility Wind Dir Wind Speed Gust Speed Precip Events Conditions
1:00 AM 73.4 °F 46.4 °F 38% 30.04 in - Calm Calm - N/A   Clear
2:00 AM 68.0 °F 46.4 °F 46% 29.98 in - Calm Calm - N/A   Clear
3:00 AM 68.0 °F 46.4 °F 46% 29.98 in - Calm Calm - N/A   Clear
5:00 AM 64.4 °F 44.6 °F 49% 30.01 in - Variable 2.3 mph - N/A   Clear
6:00 AM 66.2 °F 44.6 °F 46% 30.04 in - SSW 5.8 mph - N/A   Clear
7:00 AM 66.2 °F 44.6 °F 46% 30.04 in - SW 3.5 mph - N/A   Clear
8:00 AM 73 °F 48 °F 29%  in 6 mi NE 2.3 mph - -   Partly Cloudy
8:00 AM 73.4 °F 48.2 °F 41% 30.06 in - NE 2.3 mph - N/A   Clear
9:00 AM 80.6 °F 50.0 °F 34% 30.06 in - ENE 3.5 mph - N/A   Clear
10:00 AM 86.0 °F 50.0 °F 29% 30.06 in - NNE 2.3 mph - N/A   Clear
11:00 AM 91.4 °F 44.6 °F 20% 30.06 in - SW 1.2 mph - N/A   Clear
12:00 PM 95.0 °F 44.6 °F 18% 30.01 in - NW 3.5 mph - N/A   Clear
1:00 PM 95.0 °F 44.6 °F 18% 29.98 in - WSW 2.3 mph - N/A   Clear
2:00 PM 97 °F 48 °F 11%  in 6 mi North 2.3 mph - -   Haze
2:00 PM 96.8 °F 48.2 °F 19% 29.95 in - Variable 2.3 mph - N/A   Clear
3:00 PM 98.6 °F 42.8 °F 15% 29.95 in - Variable 2.3 mph - N/A   Clear
4:00 PM 98.6 °F 44.6 °F 16% 29.95 in 6.2 mi Variable 2.3 mph - N/A   Partly Cloudy
5:00 PM 96.8 °F 44.6 °F 17% 29.95 in - ENE 3.5 mph - N/A   Clear
6:00 PM 93.2 °F 50.0 °F 23% 29.95 in 6.2 mi ESE 3.5 mph - N/A   Partly Cloudy
7:00 PM 87.8 °F 50.0 °F 27% 29.98 in - Variable 2.3 mph - N/A   Clear
8:00 PM 80.6 °F 44.6 °F 28% 30.01 in - Variable 2.3 mph - N/A   Clear
9:00 PM 82.4 °F 41.0 °F 23% 30.04 in - NW 5.8 mph - N/A   Clear
10:00 PM 82.4 °F 44.6 °F 26% 30.04 in - NE 5.8 mph - N/A   Clear
11:00 PM 78.8 °F 46.4 °F 32% 30.04 in - North 4.6 mph - N/A   Clear